[Iaude] MPEC B169: 2024 BV3 [a=1.83,e=0.54,i=0.6,H=26.7]

mpec at marsden.cfa.harvard.edu mpec at marsden.cfa.harvard.edu
Wed Jan 31 02:48:18 EST 2024


M.P.E.C. 2024-B169                             Issued 2024 January 31, 07:46 UT

     The Minor Planet Electronic Circulars contain information on unusual
         minor planets, routine data on comets and natural satellites,
         and occasional editorial announcements.  They are published
    on behalf of Division F of the International Astronomical Union by the
          Minor Planet Center, Smithsonian Astrophysical Observatory,
                          Cambridge, MA 02138, U.S.A.
			  
             Prepared using the Tamkin Foundation Computer Network

                              MPC at CFA.HARVARD.EDU
            URL https://www.minorplanetcenter.net/    ISSN 1523-6714

                                    2024 BV3                                    


Observations:
     K24B03V*1C2024 01 30.21535407 44 22.718+15 48 52.81         20.90GVEB169G96
     K24B03V 1C2024 01 30.22102107 44 26.992+15 48 50.54         20.84GVEB169G96
     K24B03V 1C2024 01 30.22667307 44 31.369+15 48 48.60         21.62GVEB169G96
     K24B03V 1C2024 01 30.23232707 44 35.574+15 48 45.54         20.80GVEB169G96
     K24B03V 1C2024 01 30.33005507 45 48.373+15 47 58.20         20.95GVEB169G96
     K24B03V 1C2024 01 30.33058507 45 48.773+15 47 57.88         20.79GVEB169G96
     K24B03V 1C2024 01 30.33111607 45 49.172+15 47 58.16         20.76GVEB169G96
     K24B03V 1C2024 01 30.33164707 45 49.561+15 47 57.19         21.72GVEB169G96
     K24B03V KC2024 01 31.28904107 57 10.912+15 40 07.32         21.31GVEB169I52
     K24B03V KC2024 01 31.29290007 57 13.122+15 40 05.74         21.19GVEB169I52
     K24B03V KC2024 01 31.29675807 57 15.368+15 40 03.76         21.15GVEB169I52
     K24B03V KC2024 01 31.30062007 57 17.647+15 40 01.70         21.50GVEB169I52

Observer details:
G96 Mt. Lemmon Survey.  Observer D. Rankin.  Measurers T. Beuden, V. F.
    Carvajal, D. Fay, J. B. Fazekas, D. C. Fuls, A. R. Gibbs, A. D. Grauer, H.
    Groeller, J. K. Hogan, R. A. Kowalski, S. M. Larson, G. J. Leonard, D.
    Rankin, R. L. Seaman, F. C. Shelly, K. W. Wierzchos.  1.5-m reflector +
    10K CCD.
I52 Steward Observatory, Mt. Lemmon Station.  Observer R. A. Kowalski.
    Measurers E. C. Beshore, D. Fay, J. B. Fazekas, D. C. Fuls, A. R. Gibbs,
    A. D. Grauer, H. Groeller, J. K. Hogan, R. A. Kowalski, S. M. Larson, G.
    J. Leonard, D. Rankin, R. L. Seaman, F. C. Shelly, K. W. Wierzchos.  1.0-m
    prime focus + CCD.

Orbital elements:
2024 BV3                                                 Earth MOID = 0.0035 AU
Epoch 2023 Sept. 13.0 TT = JDT 2460200.5                MPC                     
M 322.72591              (2000.0)            P               Q                  
n   0.39939655     Peri.  144.76266     +0.40808465     -0.91288322             
a   1.8261362      Node   281.15072     +0.83512436     +0.37793986             
e   0.5398982      Incl.    0.61569     +0.36882817     +0.15429093             
P   2.47           H   26.74          G   0.15           U   9                  
Residuals in seconds of arc
240130 G96  0.2-  0.0     240130 G96  0.2-  0.0     240131 I52  0.2+  0.3-
240130 G96  0.6-  0.0     240130 G96  0.0   0.0     240131 I52  0.3-  0.1+
240130 G96  0.8+  0.3+    240130 G96  0.1+  0.6+    240131 I52  0.2-  0.1+
240130 G96  0.2-  0.4-    240130 G96  0.0   0.1-    240131 I52  0.3+  0.1+

Ephemeris:
2024 BV3                 a,e,i = 1.83, 0.54, 1                   q = 0.8402
Date    TT    R. A. (2000) Decl.     Delta      r    Elong.  Phase     V
2024 01 01    21 46 48.8 -12 49 31   0.1706  0.8708    44.9   127.2    28.0
...
2024 01 16    22 53 09.8 -09 05 56   0.05993 0.9432    46.2   131.2    26.3
...
2024 01 24    03 52 12.5 +10 37 33   0.02305 0.9941   114.7    64.1    20.8
...
2024 01 30    07 41 18.3 +15 51 22   0.05321 1.0363   164.2    15.0    21.3
2024 01 31    07 54 01.7 +15 43 14   0.06007 1.0435   166.3    12.9    21.5
2024 02 01    08 04 08.1 +15 34 55   0.06711 1.0509   167.7    11.5    21.7
...
2024 02 07    08 37 19.7 +14 57 28   0.1116  1.0962   169.9     9.1    22.8
...
2024 02 15    08 55 19.3 +14 32 33   0.1756  1.1590   166.4    11.5    24.0
...
2024 03 01    09 11 57.2 +14 03 31   0.3112  1.2805   155.5    18.7    25.7

A. U. Tomatic                (C) Copyright 2024 MPC           M.P.E.C. 2024-B169





More information about the Iaude mailing list